Theta_e
330 329 329 330 329 328 328 328 328 328 328 327 327 327 328 326 324 324 325 326 326 327 327 328 328 328 329 329 329 328 328 327 328 328 328 328 328 328 329 329 329 329 329 329 329 329 329 330 330 330 330 330 330 330 330 330 330 330 330 330 330 330 330
329 329 329 328 328 328 328 328 327 327 325 324 324 324 324 323 324 324 325 326 326 327 327 328 328 328 328 329 329 329 328 328 328 327 328 328 327 327 328 329 329 329 328 328 328 329 329 329 329 329 329 330 330 330 330 329 329 330 330 331 331 330 330
328 328 328 328 328 328 328 327 326 324 322 322 321 321 322 322 323 324 325 326 326 326 326 326 326 327 328 328 328 329 329 328 328 328 327 327 327 327 328 329 329 329 329 329 328 328 329 329 329 329 329 329 329 330 330 329 329 330 330 330 331 331 331
327 327 327 328 328 327 327 325 323 321 321 321 321 320 321 321 321 322 323 324 324 325 324 324 324 325 326 327 327 328 328 328 328 328 327 327 327 327 327 328 328 328 328 329 328 328 329 329 329 329 329 329 329 329 329 329 329 329 329 330 330 330 330
327 327 327 327 326 325 324 321 320 321 321 321 321 320 320 320 319 320 321 321 321 322 322 323 323 323 324 325 326 327 327 327 327 327 327 327 327 327 327 327 327 328 328 328 328 328 328 329 329 330 329 329 329 328 328 329 329 329 329 329 329 330 330
325 325 324 324 323 322 321 320 321 321 321 321 321 320 320 320 319 319 319 319 319 320 320 320 321 321 321 321 322 323 325 326 326 327 327 327 327 327 327 327 327 328 328 328 328 329 328 328 329 329 329 329 330 329 328 328 326 326 328 330 329 329 329
322 321 321 321 320 320 320 320 320 320 320 320 319 319 319 318 318 318 318 318 318 318 318 318 318 318 319 319 319 320 321 323 324 325 325 325 326 326 326 326 327 327 327 327 327 328 327 327 328 328 329 329 330 329 329 328 325 324 326 328 329 329 329
320 319 319 319 319 319 319 319 319 318 318 318 317 317 316 316 316 316 316 316 316 316 316 316 316 316 316 317 317 317 318 319 320 321 322 323 324 325 326 326 326 327 327 327 327 327 326 326 327 327 328 329 329 329 329 329 328 326 326 327 328 329 329
318 318 318 318 318 318 317 317 316 316 315 315 315 315 315 315 315 315 315 315 315 315 315 315 315 315 315 315 315 316 316 316 316 317 318 319 321 322 324 325 326 326 326 326 326 326 326 326 326 326 327 328 329 329 329 329 329 329 327 327 328 328 329
318 318 317 317 316 315 315 315 315 315 314 314 314 314 314 314 314 314 314 314 314 314 315 315 315 315 315 315 315 315 316 315 315 315 316 316 318 319 321 323 324 325 326 326 325 325 325 325 326 327 327 328 328 328 329 329 329 329 328 328 328 328 329
317 316 315 315 314 314 314 314 314 314 314 314 314 313 313 313 313 313 313 313 314 314 314 314 314 314 314 314 314 315 315 315 316 316 316 316 316 317 317 319 321 322 324 325 325 325 324 324 325 326 328 328 328 328 328 329 329 329 328 328 328 328 328
314 314 314 313 313 313 313 313 313 313 313 313 313 313 312 312 312 312 312 313 312 312 312 312 312 312 312 313 313 313 314 314 315 316 316 317 316 316 316 316 317 319 320 322 324 325 326 325 325 326 327 327 328 328 328 329 329 329 328 328 328 328 328
313 313 312 312 313 313 312 312 312 312 312 312 312 312 311 312 312 312 312 311 311 311 311 311 311 311 311 311 311 312 312 313 314 314 315 317 317 317 317 317 317 318 319 320 322 324 325 325 325 325 326 327 328 328 329 329 329 328 328 328 328 328 328
312 312 312 312 312 312 311 311 311 311 311 311 311 310 310 310 311 310 310 310 310 310 310 310 310 310 310 310 310 311 311 312 312 313 314 315 316 317 318 318 318 318 319 320 320 321 323 325 325 325 326 326 327 328 328 328 329 329 328 328 327 328 328
312 312 312 311 311 311 311 310 310 310 310 310 309 309 309 309 309 309 309 309 308 308 308 308 308 309 309 309 309 310 310 311 312 312 313 314 315 316 316 317 318 318 319 319 319 320 321 323 325 325 325 326 326 327 327 328 328 328 328 328 327 327 328
311 311 311 311 310 310 310 309 309 309 309 308 308 308 308 307 307 307 307 307 307 307 307 307 307 307 308 308 309 309 309 310 311 311 312 313 314 314 315 316 316 317 317 318 319 319 320 321 323 324 325 325 325 325 326 327 327 328 328 328 327 327 327
310 310 310 309 309 309 308 308 308 308 307 307 306 306 306 306 305 305 305 305 305 305 306 306 306 307 307 307 308 308 309 309 310 310 310 311 312 312 313 313 314 314 315 316 317 318 318 320 322 323 324 325 325 325 326 326 327 327 327 328 327 327 327
309 309 309 308 308 308 307 307 306 306 305 305 305 304 304 304 304 304 304 304 304 304 305 305 305 306 306 307 307 307 308 308 309 309 309 309 310 310 311 312 312 313 314 315 316 317 317 318 319 321 323 324 325 325 326 326 326 327 327 327 328 327 327
309 308 308 307 307 306 306 305 304 304 303 303 303 303 302 302 302 302 302 303 303 303 303 304 304 305 305 306 306 307 307 308 308 308 308 309 309 310 310 311 312 313 314 315 316 317 317 317 318 319 321 323 325 325 326 326 326 326 326 327 327 327 327
307 306 306 306 305 304 304 303 302 302 302 302 301 301 301 301 301 302 301 302 302 302 302 302 303 303 304 305 306 306 306 307 307 308 308 308 309 309 310 311 311 312 313 314 315 316 317 318 318 318 319 321 323 325 326 326 326 326 326 326 327 327 327
305 305 304 303 303 302 302 301 301 301 301 301 300 300 300 300 300 301 301 301 301 301 301 301 302 302 303 303 304 305 306 306 306 307 308 308 308 309 309 310 310 311 312 312 313 314 316 316 317 318 318 319 321 323 324 325 326 326 326 326 326 327 327
303 303 302 302 301 301 300 300 300 300 300 299 299 299 299 299 299 300 300 300 300 300 300 300 300 300 301 301 302 303 304 305 305 305 306 307 307 307 308 309 309 310 310 311 312 313 314 315 315 316 318 318 320 321 322 324 325 326 326 326 326 327 327
301 301 300 300 300 300 299 299 299 299 299 298 299 298 299 299 299 299 299 299 299 299 299 298 298 299 299 300 301 301 302 303 303 303 304 305 306 306 306 307 308 308 309 310 311 311 313 314 315 315 316 317 318 320 321 323 324 325 326 326 327 327 327
300 300 299 299 299 299 299 298 298 298 298 298 298 298 298 298 298 298 298 298 298 298 298 297 297 298 298 299 299 300 301 301 301 301 302 302 303 304 305 305 306 307 307 308 309 310 311 313 314 315 316 317 318 318 320 322 324 324 325 326 326 326 327
299 299 298 298 298 298 298 298 298 297 297 297 297 297 297 297 298 298 298 298 298 297 297 297 297 297 297 298 298 299 299 300 300 300 300 300 301 301 302 303 304 305 305 306 307 308 310 311 313 314 316 317 318 319 319 320 322 324 325 326 326 325 326
298 298 298 298 298 298 297 297 297 297 297 297 297 297 297 297 297 297 297 297 297 297 296 296 296 297 297 297 297 298 298 299 299 299 299 299 299 300 300 301 302 303 304 305 305 307 308 310 311 313 315 316 317 319 319 319 321 323 324 325 325 325 325
297 297 297 297 297 297 297 297 296 296 296 296 296 296 296 296 297 297 297 297 297 296 296 296 296 296 296 296 297 297 298 298 298 299 298 298 298 299 299 300 301 302 302 303 304 305 306 308 310 312 314 316 317 318 320 320 320 321 323 325 325 325 325
297 297 297 297 297 297 296 296 296 296 296 296 296 296 296 296 296 296 296 296 296 296 296 296 296 296 296 296 297 297 297 298 298 298 298 298 298 298 298 299 300 301 301 302 302 303 305 306 308 310 312 315 316 318 320 321 321 322 323 324 324 325 325
296 296 296 296 296 296 296 296 296 296 296 295 295 295 295 296 296 296 295 295 295 295 295 295 295 295 295 296 296 296 297 297 297 298 298 298 298 298 298 299 300 300 301 301 301 302 304 305 307 309 311 313 314 316 319 320 321 322 323 323 324 324 324
296 295 295 295 295 295 295 295 295 295 295 295 295 295 295 295 295 295 295 295 295 295 295 295 295 295 295 295 296 296 296 297 297 297 298 298 298 298 299 299 299 299 300 300 301 302 303 305 306 307 308 310 311 313 317 318 318 319 321 323 323 323 323
295 295 295 295 295 295 295 295 295 295 295 295 295 295 295 295 295 294 294 294 294 294 294 295 295 295 295 295 295 296 296 297 297 297 297 297 298 298 299 299 299 299 299 300 301 302 303 304 305 305 306 308 309 311 313 314 314 316 318 320 321 322 322
294 294 294 294 294 294 295 295 295 294 294 294 294 294 294 294 294 294 294 294 294 294 294 294 295 295 295 295 295 296 296 297 297 297 297 297 297 298 298 299 299 299 299 300 300 301 302 303 303 303 304 305 307 308 309 309 310 312 314 317 319 320 321
294 294 294 294 294 294 294 294 294 294 294 294 294 294 294 294 293 294 293 294 294 294 294 294 295 295 295 296 296 296 296 297 297 297 297 297 297 297 298 298 298 299 299 300 300 301 301 302 302 302 302 303 303 305 306 307 307 308 310 312 315 317 319
294 294 294 294 294 294 293 293 293 293 293 293 293 293 293 293 293 293 293 293 294 294 294 294 295 295 295 296 296 296 296 297 297 297 297 297 297 297 297 298 298 298 299 300 300 300 300 301 301 301 301 302 302 304 305 306 306 306 307 308 310 314 317
293 293 293 293 293 293 293 293 293 293 293 293 293 293 293 293 293 293 293 293 293 294 294 294 295 295 295 296 296 296 296 296 297 297 296 296 296 297 297 297 298 298 298 299 299 300 300 300 300 301 301 301 302 303 304 305 304 305 305 305 307 310 313
293 293 292 292 293 292 292 293 293 293 293 293 293 293 293 293 293 293 293 293 293 293 294 294 294 295 295 296 296 296 296 296 296 296 296 296 296 296 296 297 297 297 298 298 299 299 299 300 300 300 300 301 302 302 303 303 303 304 304 303 304 306 309
292 292 292 292 292 292 292 293 293 293 293 293 293 293 293 293 293 293 293 293 293 293 293 294 294 295 295 295 295 296 296 296 296 296 296 296 296 296 296 296 297 297 297 298 298 298 299 299 299 300 300 300 301 301 301 302 302 302 303 303 303 303 305
Wind_Speed
2 4 4 5 7 10 12 14 16 16 16 15 14 13 13 13 13 13 14 13 13 13 12 11 11 11 12 13 12 13 13 12 11 12 13 13 13 13 13 14 14 14 15 16 18 19 20 21 22 23 21 19 19 20 23 25 26 28 30 30 29 28 28
2 4 4 6 9 11 13 15 16 16 14 13 12 12 12 12 12 13 13 13 13 12 11 11 11 10 11 12 12 12 13 13 13 12 12 13 14 13 13 13 13 13 14 14 14 16 19 22 24 26 25 22 20 20 20 22 24 26 29 31 30 30 30
5 6 7 9 11 13 15 15 14 12 11 10 10 9 10 11 12 12 12 12 12 11 11 11 11 10 10 11 12 12 12 14 14 14 14 14 14 15 14 13 13 13 13 14 14 15 17 20 23 24 24 23 24 24 21 21 23 25 28 31 31 32 33
9 9 10 11 13 14 14 12 11 11 11 10 10 9 10 11 11 12 11 12 12 12 12 12 12 11 11 11 12 12 13 13 14 15 16 16 16 16 16 14 14 14 14 15 16 16 17 20 23 25 24 23 26 26 24 22 23 24 27 28 30 33 33
9 9 10 11 11 11 11 11 11 10 11 11 11 11 12 13 14 14 14 14 14 14 13 13 13 12 12 13 12 11 12 13 13 14 15 16 17 18 17 16 16 16 16 17 18 18 18 19 22 26 27 26 27 28 25 23 25 26 26 27 30 32 33
7 7 7 8 9 10 11 11 11 10 11 12 12 13 14 15 16 17 17 18 18 18 17 16 16 16 16 16 15 13 12 13 13 13 14 15 16 17 17 17 17 18 18 18 19 19 19 20 21 26 28 27 28 30 27 24 26 28 27 27 29 32 32
5 6 7 8 9 10 11 11 11 11 12 12 13 14 15 16 17 18 19 20 20 20 20 19 19 19 18 18 18 17 15 14 14 14 14 15 16 16 18 17 17 18 20 20 21 21 22 22 23 26 28 28 30 33 32 28 27 30 32 31 30 32 32
6 7 8 9 10 11 11 11 12 12 12 13 14 15 16 17 18 18 19 20 20 21 21 21 21 21 20 20 19 19 18 18 18 17 17 17 16 16 17 18 17 17 20 21 22 22 23 24 26 28 28 30 33 34 33 30 28 31 34 33 33 33 33
6 7 8 9 10 10 11 11 12 13 13 14 15 15 16 17 17 18 18 19 19 20 20 21 21 21 21 21 21 20 19 19 19 20 20 19 18 17 17 17 17 18 19 21 22 22 22 23 24 25 26 28 31 32 31 29 30 32 32 32 34 35 34
6 7 7 8 8 9 10 11 11 12 13 14 14 15 16 17 17 17 18 18 19 19 20 20 20 20 20 20 20 20 20 19 19 19 20 20 19 18 19 17 17 18 18 19 22 22 22 23 23 23 24 25 27 31 32 31 31 32 32 31 33 34 34
5 6 7 7 8 9 10 11 11 12 13 13 14 15 16 16 17 17 18 18 19 19 20 20 20 20 20 20 20 20 20 20 20 19 18 18 19 19 21 21 20 20 19 19 20 21 23 23 23 23 23 24 24 28 32 34 35 33 31 32 33 32 33
5 6 7 8 9 10 10 11 12 12 13 14 14 15 15 16 16 17 17 18 19 19 20 20 20 20 20 21 21 21 21 20 20 20 19 19 19 19 21 21 21 22 22 22 20 19 21 23 24 24 24 24 24 26 28 31 36 35 31 32 34 32 32
7 8 9 10 10 11 11 12 12 13 14 14 14 15 16 16 17 18 18 19 20 20 21 21 21 21 21 21 21 21 21 21 20 21 20 19 20 20 21 21 21 21 22 24 23 19 20 22 23 24 25 24 25 26 25 26 32 35 33 33 35 34 33
9 10 10 11 11 11 12 12 13 14 14 14 15 16 17 17 18 19 19 20 20 21 21 22 22 22 22 22 22 21 21 21 20 20 20 20 20 20 21 21 21 21 21 24 25 22 20 21 22 23 25 25 25 25 25 25 29 32 32 33 35 36 34
10 10 10 10 11 11 12 13 14 14 14 15 16 16 17 18 18 19 19 20 20 21 21 22 23 23 23 23 23 24 23 23 22 21 20 20 21 21 22 22 21 21 21 22 23 23 22 20 20 22 24 25 26 26 26 26 28 31 32 31 32 34 34
10 9 10 10 11 12 12 13 14 14 15 16 16 17 17 17 18 18 19 20 21 22 23 23 24 24 24 24 25 26 26 25 25 25 23 22 22 22 23 23 23 22 22 22 22 22 22 20 19 21 23 24 25 26 27 26 27 30 31 30 30 32 32
9 9 10 11 11 12 13 13 14 15 15 16 17 17 17 18 19 20 21 22 23 24 25 25 24 24 25 26 26 27 27 27 28 28 27 26 25 25 25 26 26 26 25 24 23 22 22 22 21 22 23 23 23 25 26 26 27 28 29 29 30 32 31
9 10 10 11 12 12 13 14 14 15 16 17 17 18 18 19 21 22 23 24 25 26 26 26 26 26 27 27 28 28 29 29 29 29 28 28 27 27 27 27 27 27 27 27 26 25 25 25 24 24 25 24 24 24 24 26 27 27 28 29 29 30 30
9 10 10 11 12 13 13 14 15 16 17 18 19 19 21 22 22 24 25 25 26 26 27 27 28 29 29 29 29 29 29 29 29 28 27 26 26 26 26 26 26 27 27 28 28 27 28 27 27 27 27 27 26 26 25 25 26 27 28 29 28 29 32
10 10 11 12 13 13 14 15 16 18 18 19 20 21 22 23 24 24 25 25 26 27 28 29 30 30 30 29 29 28 27 27 27 26 25 25 25 25 25 25 26 26 27 27 28 28 28 28 29 29 29 29 29 29 27 26 25 26 28 29 28 28 31
11 11 12 13 13 14 16 17 18 18 19 20 21 22 23 24 24 25 25 26 27 28 30 31 32 32 31 30 29 27 26 25 25 24 24 24 24 24 24 25 25 25 25 25 25 26 26 27 29 30 30 30 31 31 31 29 26 26 27 28 28 28 30
12 12 12 13 14 16 17 18 18 19 20 21 22 23 23 24 25 25 26 27 28 29 30 32 32 32 31 31 30 28 26 25 24 24 23 23 23 23 24 24 23 23 24 24 24 24 24 24 27 29 30 31 31 32 32 31 29 27 27 28 29 29 30
12 12 13 14 16 17 17 18 19 20 21 22 23 23 24 24 25 26 27 27 28 29 31 31 30 30 30 30 29 28 27 26 25 25 25 25 24 24 24 24 24 23 24 25 25 24 23 23 24 26 27 29 31 32 33 32 31 28 27 28 29 29 29
12 13 14 15 16 17 17 18 19 20 21 22 23 23 24 25 25 26 27 27 28 29 30 30 30 30 30 30 29 29 28 28 27 28 28 28 27 27 26 26 26 26 27 27 28 27 25 24 24 25 26 26 28 30 31 33 32 30 28 28 28 28 28
12 13 15 16 16 17 17 18 19 21 22 22 23 23 24 25 25 25 26 27 28 29 29 29 29 30 30 30 29 29 29 30 30 30 30 30 30 31 30 29 29 29 30 31 31 30 29 27 25 25 26 26 26 26 28 31 32 32 30 29 28 28 27
12 14 15 15 16 16 17 18 20 21 21 21 22 23 23 24 24 25 26 27 28 28 29 29 29 30 30 30 30 30 32 32 33 33 33 32 32 33 33 33 33 33 34 34 34 33 32 31 28 26 25 26 26 24 24 27 30 31 31 30 31 31 28
13 14 15 15 15 15 16 18 19 19 20 20 21 22 22 23 24 25 26 26 27 28 28 29 29 30 30 31 31 33 34 35 35 35 34 34 33 34 35 36 37 37 38 38 38 38 36 34 32 29 27 25 25 25 23 23 25 27 28 30 32 32 29
13 14 14 14 14 15 16 17 17 18 18 19 21 21 22 22 23 24 25 25 26 27 29 29 29 31 32 32 33 35 36 37 37 37 36 36 35 34 35 36 36 37 39 40 41 41 40 37 35 32 29 27 26 26 22 20 21 23 25 28 29 29 28
14 14 14 14 14 15 15 16 16 17 18 19 20 20 21 22 22 23 24 25 26 27 28 29 30 32 33 34 35 36 38 38 39 39 38 37 36 34 33 33 34 35 37 39 40 42 41 39 36 33 31 29 29 26 20 17 18 20 22 24 24 23 23
14 14 14 14 14 15 14 15 15 16 17 18 19 19 20 21 22 22 23 24 26 27 28 30 31 33 34 35 36 38 39 39 39 39 39 38 36 34 32 31 32 33 35 36 38 40 40 38 35 33 32 30 29 24 18 14 14 16 19 21 22 21 20
14 14 14 15 15 15 15 15 16 16 17 17 18 18 19 20 20 22 23 24 25 26 28 30 32 33 34 35 36 38 38 38 39 39 39 38 38 37 34 32 32 33 33 34 34 36 37 36 33 31 31 29 27 23 17 13 11 11 13 17 20 19 18
15 15 15 16 16 16 17 17 17 16 16 17 17 17 18 18 20 21 22 23 24 25 28 30 31 32 33 34 35 36 37 37 38 39 39 40 40 39 38 37 35 34 33 32 32 32 33 32 29 28 28 27 27 24 21 17 12 8 6 8 11 13 13
16 17 17 18 18 18 18 17 16 16 16 16 16 16 17 18 20 22 22 23 24 26 27 29 30 31 32 32 34 35 36 36 37 37 38 39 40 40 40 39 37 35 33 32 31 30 30 30 27 26 26 27 27 24 19 15 13 11 7 3 2 5 6
18 19 19 19 19 18 18 17 16 16 17 17 17 17 19 20 21 23 23 24 25 26 27 29 30 30 31 31 33 34 34 35 35 35 36 37 38 39 39 39 38 36 35 33 31 30 29 29 27 26 26 27 25 21 17 15 16 17 16 15 13 10 8
20 21 20 20 19 19 19 18 18 19 19 19 20 20 21 22 23 24 24 25 25 26 27 29 29 30 30 30 31 32 32 32 33 33 34 35 36 37 38 38 37 37 36 35 33 32 30 30 29 28 27 25 23 21 20 21 23 24 25 25 24 20 17
21 21 21 20 21 21 21 21 21 21 21 22 23 23 24 24 25 25 25 26 26 27 27 28 28 28 28 28 29 30 30 30 31 32 32 33 34 35 36 36 36 37 38 37 37 36 34 33 33 31 28 27 26 25 24 25 27 29 31 32 33 30 26
22 21 21 21 21 22 22 22 22 22 22 23 23 24 25 25 26 26 27 27 27 27 27 27 27 27 27 27 27 28 28 29 29 30 31 31 32 33 34 35 35 36 37 38 39 39 37 36 35 34 33 31 30 30 29 30 31 32 33 35 36 35 33
Wind_Direction
357 347 349 336 325 322 320 320 322 325 326 323 319 317 318 320 322 322 320 319 318 320 324 323 320 319 314 310 311 310 310 311 307 302 302 302 300 300 304 306 302 294 289 284 280 280 280 280 279 277 273 268 261 253 251 251 249 246 243 240 240 240 239
298 302 301 303 309 313 315 318 319 319 319 319 319 318 318 319 320 321 320 320 323 331 336 333 330 328 320 315 312 312 312 309 307 305 303 301 301 300 298 299 300 298 294 288 283 280 278 277 278 278 277 272 266 257 255 257 254 249 247 246 244 242 240
285 297 303 308 310 309 312 317 319 321 326 327 325 325 323 321 319 320 320 319 321 329 332 328 331 336 328 318 312 310 308 306 306 305 303 301 300 297 294 294 294 294 293 289 287 285 282 280 278 279 279 276 272 268 266 267 265 258 252 250 247 244 242
298 301 301 301 303 306 314 324 330 335 339 335 333 335 332 328 327 328 327 325 323 323 324 323 325 330 328 322 318 315 309 306 305 304 304 302 299 297 296 294 291 291 291 288 289 289 286 286 285 284 284 284 282 277 273 274 274 268 260 255 251 247 245
294 295 296 300 309 319 331 341 343 342 341 337 337 337 334 332 332 331 330 327 325 326 328 331 330 327 324 321 319 316 311 308 304 302 303 301 299 299 296 293 291 290 288 287 290 288 283 285 288 287 287 287 284 280 277 277 278 275 267 261 257 253 249
302 311 320 329 340 345 346 349 348 344 341 337 335 333 331 331 329 328 328 326 324 325 326 326 324 321 319 317 316 313 310 308 303 299 298 296 294 294 293 292 291 288 285 285 286 285 283 285 286 286 286 284 279 279 280 275 274 277 273 264 257 255 252
343 351 355 357 357 355 352 352 350 346 342 338 336 334 334 334 332 330 330 328 326 326 325 325 324 323 321 319 317 314 307 302 297 292 290 289 288 288 288 288 288 287 285 283 281 280 282 283 282 282 284 286 283 280 278 272 267 269 270 268 262 256 253
5 6 5 3 360 356 352 350 349 348 346 344 343 341 340 339 337 336 334 331 330 328 328 329 329 329 327 324 321 316 309 304 301 297 292 289 288 287 286 286 287 287 286 286 284 282 284 283 281 279 279 282 282 278 274 273 268 264 265 269 267 260 254
9 7 5 2 358 354 352 350 350 351 351 350 348 346 346 345 344 344 342 339 337 337 337 337 338 338 337 335 333 328 321 314 309 304 300 297 296 294 290 287 286 284 283 286 286 284 286 288 287 284 278 274 275 277 276 273 270 267 265 266 266 263 257
12 12 9 5 2 359 358 357 357 358 358 357 357 357 355 354 353 353 352 350 348 349 350 350 351 351 349 348 346 342 337 332 325 316 309 305 301 297 293 288 284 280 279 283 285 284 283 284 287 289 284 276 272 275 275 271 268 268 269 266 264 263 260
25 28 23 19 15 11 10 10 10 9 8 7 7 6 5 1 359 358 358 358 356 356 356 356 357 356 354 353 351 348 344 342 339 335 327 317 308 301 295 290 284 281 281 281 281 283 284 283 284 285 286 282 276 275 275 272 270 269 270 269 266 264 263
50 43 33 30 25 22 23 21 19 17 14 13 12 11 10 7 5 3 2 1 360 358 356 355 355 355 354 352 350 348 345 343 341 340 338 331 323 315 308 303 296 290 291 290 285 283 282 283 284 282 283 284 279 275 275 273 272 271 270 270 271 269 265
56 45 36 33 28 26 27 24 21 19 17 15 14 14 12 9 8 5 3 0 358 356 355 353 352 352 352 351 350 348 345 343 340 337 337 333 329 323 317 314 308 300 298 298 297 293 283 281 285 283 281 283 280 275 272 271 271 272 272 272 274 272 267
53 44 37 32 28 27 25 21 20 19 16 14 14 12 10 8 7 4 1 358 356 356 355 355 354 353 352 351 350 349 347 345 341 337 333 330 328 325 320 317 312 305 299 298 301 302 294 286 288 288 283 280 280 277 273 273 275 276 277 275 274 272 266
52 44 38 33 29 26 23 20 20 17 14 13 13 11 8 7 5 2 0 358 357 358 358 358 357 356 354 353 352 351 350 349 347 343 338 333 330 328 325 323 320 314 307 299 298 300 301 296 291 292 291 286 283 282 276 275 278 280 281 279 275 272 267
50 42 37 33 29 27 23 21 19 16 15 14 13 12 11 10 8 5 4 3 3 3 3 2 1 359 358 357 355 354 353 352 351 350 348 343 338 335 333 331 330 328 323 314 305 300 299 297 289 287 292 292 289 287 282 278 278 279 279 278 277 274 267
48 42 38 35 32 29 25 23 20 18 18 17 17 17 16 15 13 12 11 10 10 9 8 7 6 5 4 2 360 359 357 356 355 354 353 352 349 346 344 340 337 336 333 329 322 312 301 293 285 282 286 290 292 292 289 283 279 278 278 277 275 274 269
49 44 41 38 35 32 29 26 24 23 23 23 23 22 22 21 20 19 18 17 16 14 12 11 9 9 9 7 5 3 1 0 359 359 358 356 354 351 348 346 343 340 337 333 328 323 313 301 290 282 280 283 287 290 291 287 281 278 278 275 273 273 272
53 48 45 43 40 36 34 31 30 30 30 29 28 27 27 27 26 26 25 24 22 19 17 15 14 12 10 8 8 6 5 3 1 1 360 356 354 352 349 346 343 340 337 332 329 326 322 315 305 292 283 279 279 282 284 285 281 277 277 277 275 271 268
57 54 51 49 45 41 39 37 37 37 35 33 32 31 30 30 31 31 30 29 27 24 21 19 18 16 13 10 8 7 5 4 1 360 358 355 354 351 349 347 343 339 335 331 328 325 322 320 314 306 296 286 281 279 279 281 282 279 277 278 276 270 265
63 61 57 54 50 48 45 43 41 40 38 37 35 34 33 33 34 33 31 30 29 27 24 22 19 16 14 13 10 7 5 3 1 359 356 355 354 351 349 346 343 340 336 331 327 322 319 318 315 311 306 296 288 283 278 276 279 279 277 277 275 271 267
70 66 63 60 56 53 50 47 45 43 41 39 38 37 36 36 35 34 33 32 30 29 27 26 21 17 14 13 11 10 8 6 3 1 359 356 355 354 351 348 344 340 336 332 327 321 317 314 311 309 307 302 294 287 281 277 274 274 274 274 274 273 269
76 72 68 64 60 56 52 49 47 45 43 42 41 39 37 37 36 36 35 34 32 32 31 29 24 19 17 14 11 11 12 10 8 7 4 0 358 356 354 351 348 344 339 334 329 324 319 313 307 304 303 301 295 288 283 278 273 270 270 270 271 271 267
79 76 71 66 62 58 54 52 50 47 46 44 42 40 39 38 37 36 36 35 34 34 34 30 26 23 21 17 14 15 15 13 12 11 8 5 3 0 357 355 353 351 348 343 337 331 325 318 310 304 300 300 296 287 280 276 273 268 267 266 266 268 269
82 78 74 68 64 61 57 55 52 49 47 44 41 40 39 37 36 36 36 35 35 35 35 32 28 26 24 20 18 20 21 18 17 14 11 10 8 5 1 358 357 355 354 351 346 339 332 325 318 309 301 298 298 291 280 273 271 268 264 264 265 265 267
85 80 75 71 68 64 60 57 53 49 46 44 41 39 38 36 35 35 36 35 35 36 35 32 30 28 26 23 21 24 26 24 22 18 14 13 11 8 5 3 1 358 356 353 350 346 341 334 327 319 308 300 299 298 285 271 268 266 262 260 262 262 262
86 81 77 74 71 66 62 58 54 50 47 43 41 40 38 37 36 36 37 36 36 36 35 33 30 29 27 24 24 27 28 27 25 21 17 16 13 10 8 6 2 359 357 355 353 350 346 342 336 330 322 311 304 304 294 274 266 265 261 258 259 260 260
87 83 80 77 72 67 62 58 54 50 46 43 41 40 38 38 38 38 38 37 37 37 36 33 31 30 28 26 26 28 28 27 25 22 20 19 17 13 10 6 2 360 357 356 353 350 347 345 342 337 333 325 316 313 305 282 266 261 261 260 261 260 257
89 86 84 79 74 69 63 59 55 50 46 44 42 41 40 39 40 40 39 38 38 38 36 33 32 31 28 26 27 28 27 26 24 23 22 21 20 16 11 6 2 360 358 355 352 349 347 347 345 343 341 337 330 323 311 288 270 262 261 261 260 259 256
90 88 85 80 76 71 66 63 58 53 48 46 43 42 42 41 40 40 40 39 38 38 36 33 32 31 29 27 27 28 27 25 24 24 23 22 21 18 14 8 4 1 360 357 353 350 348 349 349 349 347 345 340 329 310 291 282 275 268 260 256 256 255
90 89 87 83 79 76 72 67 61 56 51 48 45 44 43 42 42 42 41 40 39 38 37 34 32 31 29 28 28 28 27 26 25 25 24 23 22 20 17 13 8 4 2 0 357 354 353 352 355 357 354 351 349 342 329 322 316 298 281 267 261 259 253
92 91 89 85 82 78 73 68 63 58 54 50 49 47 46 45 44 44 43 42 41 39 38 36 33 31 30 28 28 29 28 26 27 27 25 25 24 23 20 17 13 8 5 3 2 2 2 1 4 7 5 1 1 359 351 348 355 347 308 273 261 257 249
95 92 88 85 81 77 73 69 65 61 58 56 54 51 50 49 48 47 45 43 42 41 40 38 35 32 31 29 28 29 28 27 28 29 28 27 26 25 23 21 17 12 9 7 7 8 10 12 15 18 20 20 20 13 358 355 18 36 40 61 163 210 213
95 91 87 85 82 79 77 74 70 68 66 64 61 57 55 53 52 50 47 45 45 44 42 41 37 34 32 31 29 29 29 28 30 32 31 30 29 27 26 24 21 18 16 14 13 14 15 18 22 28 34 38 38 31 19 20 40 56 64 68 77 96 109
95 92 90 88 86 84 82 79 75 74 72 69 65 61 58 56 54 52 49 47 47 47 45 44 41 37 36 34 32 31 30 29 31 34 34 34 33 31 30 28 26 24 24 23 22 22 22 22 25 30 38 44 46 45 42 42 47 54 60 62 65 74 81
98 96 94 92 89 87 84 81 77 75 72 70 66 62 60 58 55 54 52 50 49 49 48 47 44 41 40 38 35 34 33 32 33 36 38 38 37 35 33 31 29 29 29 29 29 29 28 28 28 29 32 40 47 50 51 52 52 52 55 56 57 62 64
102 100 98 95 91 87 84 80 77 74 70 67 65 62 59 58 56 55 54 52 51 49 49 49 47 44 43 41 39 36 35 34 34 37 39 41 40 39 37 35 33 32 32 33 33 34 34 34 34 32 31 34 40 44 46 47 49 50 52 52 52 54 56